Regional Weather Roundup
Issued by NWS

Home | Current Version | Previous Version | Text Only | Print | Product List | Glossary On
Versions: 1 2 3 4 5 6 7 8 9 10 11 12 13 14 15 16 17 18 19 20 21 22 23 24 25 26 27 28
000
ASUS45 KREV 042210
RWRNV
NEVADA REGIONAL WEATHER ROUNDUP
NATIONAL WEATHER SERVICE RENO NV
300 PM PDT WED MAY 04 2016

NOTE: "FAIR" INDICATES FEW OR NO CLOUDS BELOW 12,000 FEET WITH NO
SIGNIFICANT WEATHER AND/OR OBSTRUCTIONS TO VISIBILITY.

NVZ001-003-004-042300-
WESTERN NEVADA

CITY           SKY/WX    TMP DP  RH WIND       PRES   REMARKS
RENO           CLOUDY    69  33  26 SE14G26   29.90F
CARSON CITY    FAIR      68  36  30 NE14      29.92F
MINDEN         FAIR      68  36  30 CALM      29.92F
SLIDE MTN        N/A     41  30  65 SE21        N/A
PYRAMID LAKE     N/A     64 N/A N/A N6          N/A
FALLON         CLOUDY    78  23  13 SE15G25   29.85F
LOVELOCK       CLOUDY    77  25  14 S14G25    29.87
$$

NVZ002-CAZ072-073-042300-
NORTHERN AND CENTRAL SIERRA

CITY           SKY/WX    TMP DP  RH WIND       PRES   REMARKS
S. LAKE TAHOE  LGT RAIN  60  33  36 S9        29.98F
TRUCKEE        CLOUDY    63  32  31 S13G18    29.98
SQUAW VLY 8000   N/A     43  34  70 SW7         N/A
BLUE CANYON    CLOUDY    61  40  45 S9G23     29.97F
MAMMOTH LAKES  FAIR      63  23  21 E13G23    30.02F
BRIDGEPORT     PTSUNNY   61  22  22 VRB7G22   29.97F
$$

NVZ030-031-036-042300-
NORTHERN NEVADA

CITY           SKY/WX    TMP DP  RH WIND       PRES   REMARKS
ELKO           CLOUDY    73  33  23 S9        29.98F
WINNEMUCCA     CLOUDY    74  27  17 VRB5      29.92F
WENDOVER       MOSUNNY   72  39  30 SE3       30.02F
$$

NVZ035-037-042300-
CENTRAL NEVADA

CITY           SKY/WX    TMP DP  RH WIND       PRES   REMARKS
ELY            MOSUNNY   70  30  22 S20G26    30.06F
EUREKA           N/A     70  28  21 SE21G28   30.01F
$$

NVZ013-014-042300-
SOUTH CENTRAL NEVADA

CITY           SKY/WX    TMP DP  RH WIND       PRES   REMARKS
TONOPAH        MOSUNNY   75  23  14 S23G33    29.98F
$$

NVZ017-020-022-042300-
SOUTHERN NEVADA

CITY           SKY/WX    TMP DP  RH WIND       PRES   REMARKS
LAS VEGAS      MOSUNNY   91  23   8 S10       29.81F
N. LAS VEGAS   SUNNY     90  26  10 SE15G26   29.83F
NELLIS AFB     SUNNY     91  25   9 SE22      29.82F
HENDERSON      SUNNY     91  31  11 SE18G24   29.87F
MERCURY        SUNNY     87  30  13 S20G25    29.87F
$$




USA.gov is the U.S. government's official web portal to all federal, state and local government web resources and services.